Theta_e
339 336 335 329 325 321 319 317 317 317 317 317 319 317 317 316 317 316 315 314 313 312
338 331 327 323 321 320 319 319 317 316 315 316 317 317 317 316 316 316 314 314 314 313
328 326 322 321 318 317 314 315 314 314 314 315 317 317 316 316 315 314 314 315 314 314
323 320 319 317 316 315 314 314 314 314 315 315 315 315 315 315 316 314 314 314 313 312
321 319 317 316 315 315 313 313 314 315 316 316 316 314 315 314 314 313 313 313 311 309
318 317 315 314 313 314 313 313 315 315 315 315 315 315 314 315 314 314 313 313 311 306
317 315 315 314 313 314 315 314 313 313 312 310 309 310 313 315 314 314 312 310 308 305
316 315 315 314 313 314 314 314 314 309 307 306 305 305 305 311 313 312 309 307 307 305
316 315 313 312 312 313 313 313 310 307 305 302 303 300 302 305 309 311 308 303 303 302
315 314 313 313 313 312 312 312 309 306 303 299 297 297 298 301 305 309 306 302 300 301
314 313 312 313 311 309 309 311 308 304 300 295 295 296 296 299 305 308 303 299 297 295
313 313 313 312 309 308 309 312 311 306 300 294 291 295 295 300 308 298 295 296 296 295
314 313 312 312 310 308 311 311 312 306 299 298 291 295 296 297 301 299 295 294 295 297
313 313 313 312 309 309 310 312 310 306 299 296 293 293 294 295 293 296 298 294 293 294
Wind_Speed
13 9 10 12 9 8 7 5 6 6 6 6 7 6 5 3 3 5 5 8 6 4
10 10 11 14 12 9 7 6 7 7 7 6 6 7 6 4 5 5 5 6 6 4
13 13 13 12 11 10 8 7 7 7 6 6 6 6 6 4 5 6 4 4 7 6
12 13 13 11 11 10 8 8 7 7 6 6 6 6 6 6 6 7 7 6 7 6
13 12 12 10 7 8 8 7 7 6 6 6 6 7 7 7 7 7 7 6 7 6
14 11 10 8 7 8 8 7 7 7 7 5 6 6 7 7 7 6 6 7 7 6
12 9 9 7 7 8 7 8 7 7 10 8 8 7 6 6 7 7 7 7 7 6
11 9 9 8 8 8 7 7 10 10 9 7 8 6 6 6 7 7 7 7 6 6
13 11 9 8 8 7 7 8 11 9 8 8 5 7 9 7 4 7 7 6 6 4
14 13 11 8 7 7 8 11 11 9 8 6 5 9 8 7 3 5 7 6 6 6
15 14 10 9 9 6 8 11 9 8 7 5 5 7 7 5 3 8 8 7 6 5
15 14 13 11 9 6 7 8 10 8 7 6 5 6 5 4 8 8 7 6 5 5
13 14 13 12 10 6 8 7 9 9 6 7 6 6 11 9 5 6 4 2 2 5
14 12 12 11 7 6 8 10 10 8 6 6 5 7 12 11 6 4 4 3 3 3
Wind_Direction
129 133 136 133 132 116 115 120 113 102 102 99 98 94 99 90 95 78 67 50 48 55
121 109 114 113 114 117 116 118 103 103 102 94 109 116 99 85 81 89 69 61 55 47
112 108 108 109 115 117 114 106 108 110 109 97 112 133 105 93 79 87 67 71 60 41
103 105 105 108 112 120 116 121 126 130 126 131 117 107 107 107 102 81 69 71 71 64
110 102 105 115 118 120 124 133 142 141 137 129 113 105 106 93 90 85 71 80 79 61
100 114 122 120 132 114 117 125 122 128 129 126 89 96 109 111 108 100 75 56 81 60
122 134 121 135 119 109 118 120 125 91 85 81 69 56 38 86 94 81 71 65 82 79
130 130 123 129 118 118 127 120 98 90 83 77 67 50 39 43 84 87 73 57 93 68
138 127 133 124 116 125 127 105 98 80 78 70 70 45 56 61 64 96 91 67 50 82
136 133 130 119 113 113 106 108 100 98 89 78 61 28 29 42 70 105 105 82 57 43
139 136 129 113 111 112 113 112 109 104 97 93 56 21 6 359 71 80 79 80 72 65
143 135 128 127 117 114 104 104 116 110 110 94 56 357 360 64 85 93 89 84 88 77
137 136 130 133 129 140 131 123 108 111 111 108 75 29 54 65 91 106 107 83 44 63
137 135 131 132 132 142 127 118 110 116 120 103 95 59 63 58 69 81 131 105 39 347